Regional Weather Roundup
Issued by NWS

Home | Current Version | Previous Version | Graphics & Text | Print | Product List | Glossary On
Versions: 1 2 3 4 5 6 7 8 9 10 11 12 13 14 15 16 17 18 19 20 21 22 23 24 25 26 27 28 29 30 31 32 33 34 35 36 37 38 39 40 41 42 43 44 45 46 47 48 49 50
000
ASUS43 KOAX 212102
RWRNE

WEATHER ROUNDUP FOR NEBRASKA
NATIONAL WEATHER SERVICE OMAHA NE
400 PM CDT SAT APR 21 2018

NOTES: SATELLITE DATA IS BEING USED TO AUGMENT CLOUD COVER ABOVE
       12000 FEET.
       "FAIR" INDICATES FEW OR NO CLOUDS BELOW 12,000 FEET WITH NO
       SIGNIFICANT WEATHER AND/OR OBSTRUCTIONS TO VISIBILITY.


NEZ001>004-019>022-054>056-212200-
NEBRASKA PANHANDLE

CITY           SKY/WX    TMP DP  RH WIND       PRES   REMARKS
SCOTTSBLUFF    CLOUDY    43  39  86 SE6       30.19F
ALLIANCE       CLOUDY    40  37  89 S7        30.20S
CHADRON        CLOUDY    45  38  76 S8        30.19F
GORDON         CLOUDY    42  38  84 S7        30.20F
KIMBALL        CLOUDY    41  35  77 CALM      30.19S
SIDNEY         CLOUDY    40  33  76 E5        30.20S
$$

NEZ057>060-069>072-079>082-212200-
SOUTHWEST NEBRASKA

CITY           SKY/WX    TMP DP  RH WIND       PRES   REMARKS
NORTH PLATTE   CLOUDY    45  38  76 E9        30.22S
IMPERIAL       CLOUDY    41  39  93 NE6       30.21R
LEXINGTON      CLOUDY    46  39  78 NE8       30.21F
MCCOOK         CLOUDY    44  40  85 NE10      30.20F
OGALLALA       CLOUDY    43  39  86 E8        30.22S
$$

NEZ005>010-023>029-035>040-094-212200-
NORTH CENTRAL NEBRASKA

CITY           SKY/WX    TMP DP  RH WIND       PRES   REMARKS
VALENTINE      CLOUDY    51  35  54 SE13      30.24F
AINSWORTH      CLOUDY    44  39  85 E6        30.25F
BROKEN BOW     CLOUDY    46  36  68 NE7       30.22F
O`NEILL        CLOUDY    49  36  62 NE6       30.26S
ORD            LGT RAIN  46  38  73 SE7       30.23F
THEDFORD       CLOUDY    47  38  71 E8        30.25R
$$

NEZ041-046>049-061>064-073>077-083>087-212200-
SOUTH CENTRAL NEBRASKA

CITY           SKY/WX    TMP DP  RH WIND       PRES   REMARKS
GRAND ISLAND   CLOUDY    44  40  85 E3        30.24S
AURORA         DRIZZLE   45  43  93 E3        30.23F
HASTINGS       LGT RAIN  44  42  93 E6        30.22S
HEBRON         CLOUDY    46  41  82 E12       30.21F
HOLDREGE       CLOUDY    44  40  86 NE10      30.20F
KEARNEY        LGT RAIN  43  41  93 NE10      30.22F
YORK             N/A     46  39  76 E8        30.23F
$$

NEZ011>018-030>034-042>045-212200-
NORTHEAST NEBRASKA

CITY           SKY/WX    TMP DP  RH WIND       PRES   REMARKS
NORFOLK        CLOUDY    51  34  52 N8        30.22F
ALBION         CLOUDY    49  33  54 E7        30.25S
BLAIR          CLOUDY    53  30  41 CALM      30.24F
COLUMBUS       CLOUDY    50  31  48 E8        30.25F
FREMONT        CLOUDY    53  29  39 E3        30.26S
TEKAMAH        CLOUDY    56  28  34 SE9       30.25F
WAYNE          CLOUDY    51  33  50 NE6       30.26F
$$

NEZ050>053-065>068-078-088>093-212200-
SOUTHEAST NEBRASKA

CITY           SKY/WX    TMP DP  RH WIND       PRES   REMARKS
LINCOLN        LGT RAIN  51  37  58 E15       30.24F
OMAHA EPPLEY   CLOUDY    54  30  40 SW5       30.25S
BEATRICE       CLOUDY    47  42  81 E10       30.20F
FALLS CITY     CLOUDY    51  41  68 N10       30.20F
NEBRASKA CITY  CLOUDY    53  38  58 NE14      30.22F
PLATTSMOUTH    CLOUDY    52  36  53 CALM      30.24F
$$

NEZ044-045-051>053-067-212200-
OMAHA AREA

CITY           SKY/WX    TMP DP  RH WIND       PRES   REMARKS
OMAHA EPPLEY   CLOUDY    54  30  40 SW5       30.25S
BLAIR          CLOUDY    53  30  41 CALM      30.24F
FREMONT        CLOUDY    53  29  39 E3        30.26S
MILLARD        CLOUDY    54  31  41 CALM      30.25S
OFFUTT AFB     CLOUDY    54  29  39 CALM      30.24S
PLATTSMOUTH    CLOUDY    52  36  53 CALM      30.24F
WAHOO          CLOUDY    53  27  37 E7        30.24F
$$



USA.gov is the U.S. government's official web portal to all federal, state and local government web resources and services.